Adelaide, Australia

9:41 PM ACST on August 22, 2017 (GMT +0930)
Adelaide International

Weather History for YPAD - May, 2013

Change the Weather History Date:

Friday, May 24, 2013

  Actual Average Record
Temperature  
Mean Temperature 52 °F -  
Max Temperature 61 °F 62 °F 75 °F (2014)
Min Temperature 42 °F 46 °F 39 °F (2006)
Degree Days  
Heating Degree Days 14    
Growing Degree Days 2 (Base 50)    
Moisture  
Dew Point 48 °F    
Average Humidity 81    
Maximum Humidity 100    
Minimum Humidity 63    
Precipitation  
Precipitation 0.00 in 0.07 in - ()
Sea Level Pressure  
Sea Level Pressure 30.34 in    
Wind  
Wind Speed 4 mph ()    
Max Wind Speed 10 mph    
Max Gust Speed -    
Visibility 8.7 miles    
Events      
Averages and records for this station are not official NWS values.
T = Trace of Precipitation, MM = Missing Value Source: Averaged Metar Reports

Daily Weather History Graph

Daily Weather History Graph

Search for Another Location

Airport or City:

Trip Planner

Search our weather history database for the weather conditions in past years. The results will help you decide how hot, cold, wet, or windy it might be!

Date:

Astronomy

May. 24, 2013 Rise Set
Actual Time 7:09 AM ACST 5:15 PM ACST
Civil Twilight 6:42 AM ACST 5:43 PM ACST
Nautical Twilight 6:11 AM ACST 6:14 PM ACST
Astronomical Twilight 5:40 AM ACST 6:44 PM ACST
Moon 4:31 PM ACST (5/24) 5:42 AM ACST (5/24)
Length of Visible Light 11h 00m
Length of Day
10h 06m
Waxing Gibbous, 98% of the Moon is Illuminated
May 24
Waxing Gibbous
May 25
Full
Jun 1
Last Quarter
Jun 9
New
Jun 17
First Quarter

Hourly Weather History & Observations

Time (ACST) Temp. Windchill Dew Point Humidity Pressure Visibility Wind Dir Wind Speed Gust Speed Precip Events Conditions
12:00 AM 48 °F - 46 °F 88% 30.31 in 19 mi East 1.2 mph - -   Partly Cloudy
12:00 AM 48.2 °F - 46.4 °F 93% 30.30 in - East 1.2 mph - N/A   Clear
12:30 AM 48 °F - 45 °F 86% 30.31 in - Calm Calm - -  
12:30 AM 48.2 °F - 44.6 °F 87% 30.30 in - Calm Calm - N/A   Clear
1:30 AM 44.6 °F 41.4 °F 42.8 °F 93% 30.30 in - NE 5.8 mph - N/A   Clear
2:00 AM 44.6 °F 42.2 °F 42.8 °F 93% 30.30 in - East 4.6 mph - N/A   Clear
2:43 AM 44.6 °F 42.2 °F 42.8 °F 93% 30.30 in - ESE 4.6 mph - N/A   Clear
3:00 AM 44 °F - 42 °F 91% 30.30 in 19 mi NE 5.8 mph - -   Partly Cloudy
3:00 AM 42.8 °F 39.3 °F 42.8 °F 100% 30.30 in - NE 5.8 mph - N/A   Clear
3:30 AM 44 °F - 42 °F 89% 30.30 in - NNE 4.6 mph - -  
3:30 AM 44.6 °F 42.2 °F 42.8 °F 93% 30.30 in - NNE 4.6 mph - N/A   Clear
4:00 AM 42.8 °F 40.1 °F 41.0 °F 93% 30.30 in - NW 4.6 mph - N/A   Clear
4:30 AM 42.8 °F 40.1 °F 41.0 °F 93% 30.30 in - North 4.6 mph - N/A   Clear
5:00 AM 42.8 °F 39.3 °F 41.0 °F 93% 30.30 in - ENE 5.8 mph - N/A   Clear
5:30 AM 42.8 °F 39.3 °F 41.0 °F 93% 30.30 in - East 5.8 mph - N/A   Clear
6:00 AM 44 °F - 42 °F 91% 30.34 in 19 mi East 4.6 mph - -   Partly Cloudy
6:00 AM 44.6 °F 42.2 °F 42.8 °F 93% 30.33 in 6.2 mi ENE 4.6 mph - N/A   Partly Cloudy
6:30 AM 45 °F - 44 °F 92% 30.34 in - NE 6.9 mph - -  
6:30 AM 44.6 °F 40.7 °F 42.8 °F 93% 30.33 in 6.2 mi NE 6.9 mph - N/A   Mostly Cloudy
7:00 AM 46.4 °F 44.3 °F 44.6 °F 93% 30.33 in 6.2 mi ENE 4.6 mph - N/A   Scattered Clouds
7:30 AM 46.4 °F 42.9 °F 44.6 °F 93% 30.33 in 6.2 mi NE 6.9 mph - N/A   Partly Cloudy
8:00 AM 48.2 °F - 46.4 °F 93% 30.33 in 6.2 mi North 4.6 mph - N/A   Partly Cloudy
8:30 AM 51.8 °F - 48.2 °F 88% 30.36 in 6.2 mi NE 3.5 mph - N/A   Partly Cloudy
9:00 AM 54 °F - 48 °F 74% 30.38 in 19 mi ENE 3.5 mph - -   Partly Cloudy
9:00 AM 53.6 °F - 48.2 °F 82% 30.36 in - ENE 3.5 mph - N/A   Clear
9:30 AM 56 °F - 49 °F 72% 30.38 in - Calm Calm - -  
9:30 AM 55.4 °F - 50.0 °F 82% 30.36 in - Calm Calm - N/A   Clear
10:00 AM 57.2 °F - 50.0 °F 77% 30.36 in - North 5.8 mph - N/A   Clear
10:30 AM 59.0 °F - 48.2 °F 67% 30.39 in - North 4.6 mph - N/A   Clear
11:00 AM 57.2 °F - 51.8 °F 82% 30.36 in - NW 5.8 mph - N/A   Clear
11:30 AM 57.2 °F - 50.0 °F 77% 30.36 in - NW 9.2 mph - N/A   Clear
12:00 PM 58 °F - 50 °F 66% 30.37 in 16 mi NNW 6.9 mph - -   Partly Cloudy
12:00 PM 57.2 °F - 50.0 °F 77% 30.36 in - NNW 6.9 mph - N/A   Clear
12:30 PM 60 °F - 51 °F 63% 30.36 in - North 5.8 mph - -  
12:30 PM 60.8 °F - 50.0 °F 68% 30.36 in 6.2 mi North 5.8 mph - N/A   Mostly Cloudy
1:00 PM 59.0 °F - 51.8 °F 77% 30.33 in 6.2 mi North 5.8 mph - N/A   Mostly Cloudy
1:26 PM 60.8 °F - 53.6 °F 77% 30.33 in 6.2 mi WNW 5.8 mph - N/A   Mostly Cloudy
1:30 PM 60.8 °F - 53.6 °F 77% 30.33 in 6.2 mi NW 4.6 mph - N/A   Mostly Cloudy
1:37 PM 60.8 °F - 53.6 °F 77% 30.33 in - NW 4.6 mph - N/A   Unknown
2:00 PM 60.8 °F - 53.6 °F 77% 30.33 in 6.2 mi SSW 4.6 mph - N/A   Mostly Cloudy
2:30 PM 60.8 °F - 53.6 °F 77% 30.33 in 6.2 mi SW 8.1 mph - N/A   Mostly Cloudy
3:00 PM 61 °F - 52 °F 65% 30.35 in 16 mi South 9.2 mph - -   Mostly Cloudy
3:00 PM 60.8 °F - 51.8 °F 72% 30.33 in 6.2 mi South 9.2 mph - N/A   Mostly Cloudy
3:30 PM 60 °F - 53 °F 71% 30.35 in - SW 9.2 mph - -  
3:30 PM 60.8 °F - 53.6 °F 77% 30.33 in 6.2 mi SW 9.2 mph - N/A   Mostly Cloudy
4:00 PM 59.0 °F - 53.6 °F 82% 30.33 in 6.2 mi SSW 10.4 mph - N/A   Mostly Cloudy
4:30 PM 59.0 °F - 51.8 °F 77% 30.33 in 6.2 mi South 6.9 mph - N/A   Mostly Cloudy
5:00 PM 59.0 °F - 51.8 °F 77% 30.36 in 6.2 mi South 5.8 mph - N/A   Mostly Cloudy
5:30 PM 59.0 °F - 50.0 °F 72% 30.36 in 6.2 mi SW 8.1 mph - N/A   Mostly Cloudy
6:00 PM 59 °F - 50 °F 63% 30.37 in 19 mi SSE 6.9 mph - -   Partly Cloudy
6:00 PM 59.0 °F - 50.0 °F 72% 30.36 in 6.2 mi SSE 6.9 mph - N/A   Mostly Cloudy
6:30 PM 59 °F - 51 °F 69% 30.37 in - ESE 5.8 mph - -  
6:30 PM 59.0 °F - 51.8 °F 77% 30.36 in 6.2 mi ESE 5.8 mph - N/A   Mostly Cloudy
7:00 PM 59.0 °F - 51.8 °F 77% 30.36 in 6.2 mi East 4.6 mph - N/A   Mostly Cloudy
7:30 PM 57.2 °F - 51.8 °F 82% 30.36 in 6.2 mi East 4.6 mph - N/A   Mostly Cloudy
8:00 PM 57.2 °F - 51.8 °F 82% 30.36 in 6.2 mi East 3.5 mph - N/A   Mostly Cloudy
8:30 PM 57.2 °F - 51.8 °F 82% 30.36 in 6.2 mi Calm Calm - N/A   Mostly Cloudy
9:00 PM 57 °F - 52 °F 79% 30.38 in 19 mi Calm Calm - -   Partly Cloudy
9:00 PM 57.2 °F - 51.8 °F 82% 30.36 in 6.2 mi Calm Calm - N/A   Mostly Cloudy
9:30 PM 57 °F - 49 °F 68% 30.38 in - SSE 5.8 mph - -  
9:30 PM 57.2 °F - 50.0 °F 77% 30.36 in 6.2 mi SSE 5.8 mph - N/A   Mostly Cloudy
10:00 PM 57.2 °F - 48.2 °F 72% 30.36 in 6.2 mi South 6.9 mph - N/A   Mostly Cloudy
10:30 PM 57.2 °F - 48.2 °F 72% 30.36 in 6.2 mi SSE 6.9 mph - N/A   Mostly Cloudy
11:00 PM 57.2 °F - 46.4 °F 67% 30.39 in 6.2 mi South 6.9 mph - N/A   Mostly Cloudy
11:30 PM 57.2 °F - 48.2 °F 72% 30.39 in 6.2 mi SSE 6.9 mph - N/A   Mostly Cloudy